EW2575 Weather Reports


Display with metric or nautical units.
time (UTC)temp
F
wind
direction
speed
MPH
gust
MPH
rain 1hr
in
rain 24hr
in
rain mn
in
humidity
%
barometer
mb
20260903015526 65 86 2.0 3.0 0.00 0.00 0.00 87 1016.9
20260903015025 65 355 0.0 2.0 0.00 0.00 0.00 89 1016.9
20260903014525 64 111 1.0 4.0 0.00 0.00 0.00 88 1016.9
20260903014029 64 111 2.0 4.0 0.00 0.00 0.00 88 1016.9
20260903013527 64 71 1.0 2.0 0.00 0.00 0.00 91 1016.9
20260903013024 64 71 0.0 0.0 0.00 0.00 0.00 92 1016.9
20260903012523 64 71 0.0 3.0 0.00 0.00 0.00 92 1016.9
20260903012024 64 71 0.0 3.0 0.00 0.00 0.00 93 1016.8
20260903011525 63 71 1.0 4.0 0.00 0.00 0.00 93 1016.7
20260903011024 63 71 2.0 4.0 0.00 0.00 0.00 93 1016.7
20260903010526 63 71 2.0 4.0 0.00 0.00 0.00 93 1016.8
20260903010027 65 61 1.0 3.0 0.00 0.00 0.00 94 1016.9
20260903005519 65 105 0.0 1.0 0.00 0.00 0.00 94 1016.8
20260903005019 66 105 0.0 2.0 0.00 0.00 0.00 94 1016.8
20260903004520 66 105 0.0 3.0 0.00 0.00 0.00 94 1016.7
20260903004018 66 105 0.0 4.0 0.00 0.00 0.00 94 1016.8
20260903003518 66 105 2.0 4.0 0.00 0.00 0.00 94 1016.9
20260903003017 66 210 0.0 1.0 0.00 0.00 0.00 94 1016.9
20260903002517 66 210 0.0 2.0 0.00 0.00 0.00 94 1016.9
20260903002017 66 210 0.0 5.0 0.00 0.00 0.00 94 1016.9
20260903001516 66 234 3.0 5.0 0.00 0.00 0.00 93 1016.9
20260903001015 66 226 3.0 5.0 0.00 0.00 0.00 94 1016.8
20260903000519 66 5 0.0 2.0 0.00 0.00 0.00 93 1016.7
20260903000033 66 5 0.0 2.0 0.00 0.00 0.00 93 1016.7
20260902235514 66 5 0.0 3.0 0.00 0.00 0.00 93 1016.8
20260902235017 66 5 0.0 3.0 0.00 0.00 0.00 93 1016.7
20260902234513 66 5 0.0 0.0 0.00 0.00 0.00 93 1016.6
20260902234013 66 5 0.0 0.0 0.00 0.00 0.00 92 1016.5
20260902233513 67 5 0.0 3.0 0.00 0.00 0.00 92 1016.5
20260902233013 67 5 0.0 3.0 0.00 0.00 0.00 92 1016.5
20260902232512 67 5 0.0 0.0 0.00 0.00 0.00 92 1016.5
20260902232011 66 5 0.0 0.0 0.00 0.00 0.00 92 1016.6
20260902231512 66 5 0.0 0.0 0.00 0.00 0.00 92 1016.6
20260902231009 66 5 0.0 0.0 0.00 0.00 0.00 92 1016.7
20260902230511 66 5 0.0 0.0 0.00 0.00 0.00 91 1016.7
20260902230008 66 5 0.0 0.0 0.00 0.00 0.00 91 1016.7
20260902225507 66 5 0.0 0.0 0.00 0.00 0.00 91 1016.6
20260902225010 67 5 0.0 0.0 0.00 0.00 0.00 92 1016.7
20260902224505 67 5 0.0 0.0 0.00 0.00 0.00 92 1016.8
20260902224010 67 5 0.0 0.0 0.00 0.00 0.00 92 1016.8
20260902223505 67 5 0.0 0.0 0.00 0.00 0.00 91 1016.8
20260902223017 67 5 0.0 0.0 0.00 0.00 0.00 91 1016.9
20260902222506 67 5 0.0 0.0 0.00 0.00 0.00 91 1016.9
20260902222004 67 5 0.0 0.0 0.00 0.00 0.00 91 1016.8
20260902221504 67 5 0.0 0.0 0.00 0.00 0.00 91 1016.7
20260902221004 67 5 0.0 0.0 0.00 0.00 0.00 91 1016.7
20260902220504 67 5 0.0 0.0 0.00 0.00 0.00 91 1016.8
20260902220006 67 5 0.0 0.0 0.00 0.00 0.00 91 1016.7
20260902215503 67 5 0.0 0.0 0.00 0.00 0.00 91 1016.7
20260902215003 67 5 0.0 0.0 0.00 0.00 0.00 91 1016.8
20260902214510 67 5 0.0 0.0 0.00 0.00 0.00 90 1016.8
20260902214004 68 5 0.0 0.0 0.00 0.00 0.00 90 1016.9
20260902213503 68 5 0.0 0.0 0.00 0.00 0.00 91 1016.9
20260902213002 68 5 0.0 0.0 0.00 0.00 0.00 90 1016.9
20260902212503 68 5 0.0 0.0 0.00 0.00 0.00 90 1016.8
20260902212004 68 5 0.0 0.0 0.00 0.00 0.00 90 1016.8
20260902211505 68 267 0.0 0.0 0.00 0.00 0.00 90 1016.6
20260902211002 69 267 0.0 0.0 0.00 0.00 0.00 90 1016.6
20260902210502 69 267 0.0 0.0 0.00 0.00 0.00 90 1016.6
20260902210008 69 267 0.0 0.0 0.00 0.00 0.00 89 1016.5
20260902205501 69 267 0.0 1.0 0.00 0.00 0.00 89 1016.4
20260902205001 69 267 0.0 1.0 0.00 0.00 0.00 89 1016.3
20260902204503 69 267 0.0 1.0 0.00 0.00 0.00 89 1016.4
20260902204004 69 267 0.0 0.0 0.00 0.00 0.00 89 1016.4
20260902203501 69 267 0.0 0.0 0.00 0.00 0.00 89 1016.4
20260902203101 69 267 0.0 0.0 0.00 0.00 0.00 89 1016.4
20260902202600 69 267 0.0 1.0 0.00 0.00 0.00 89 1016.4
20260902202101 69 267 0.0 3.0 0.00 0.00 0.00 88 1016.3
20260902201559 70 267 0.0 3.0 0.00 0.00 0.00 88 1016.4
20260902201059 70 267 0.0 2.0 0.00 0.00 0.00 88 1016.4
20260902200600 70 267 1.0 3.0 0.00 0.00 0.00 88 1016.3
20260902200100 70 267 1.0 3.0 0.00 0.00 0.00 87 1016.2
20260902195600 70 242 1.0 3.0 0.00 0.00 0.00 87 1016.2
20260902195159 71 242 1.0 3.0 0.00 0.00 0.00 87 1016.2
20260902194559 71 242 0.0 0.0 0.00 0.00 0.00 87 1016.2
20260902194059 71 242 0.0 1.0 0.00 0.00 0.00 87 1016.2
20260902193559 71 242 0.0 3.0 0.00 0.00 0.00 87 1016.2
20260902193059 71 242 0.0 4.0 0.00 0.00 0.00 86 1016.3
20260902192557 71 269 2.0 4.0 0.00 0.00 0.00 86 1016.3
20260902192058 71 275 2.0 3.0 0.00 0.00 0.00 86 1016.3
20260902191559 71 252 2.0 4.0 0.00 0.00 0.00 86 1016.2
20260902191100 71 256 2.0 5.0 0.00 0.00 0.00 86 1016.3
20260902190600 71 171 0.0 6.0 0.00 0.00 0.00 86 1016.2
20260902190057 71 266 3.0 6.0 0.00 0.00 0.00 86 1016.4
20260902185557 71 263 1.0 6.0 0.00 0.00 0.00 86 1016.4
20260902185056 71 246 3.0 8.0 0.00 0.00 0.00 85 1016.5
20260902184603 71 236 4.0 8.0 0.00 0.00 0.00 85 1016.5
20260902184058 72 267 4.0 8.0 0.00 0.00 0.00 85 1016.6
20260902183556 72 271 1.0 8.0 0.00 0.00 0.00 84 1016.6
20260902183104 72 236 0.0 7.0 0.00 0.00 0.00 84 1016.6
20260902182555 72 253 0.0 8.0 0.00 0.00 0.00 84 1016.7
20260902182055 72 256 3.0 9.0 0.00 0.00 0.00 82 1016.7
20260902181556 72 303 2.0 9.0 0.00 0.00 0.00 82 1016.7
20260902181055 72 244 2.0 8.0 0.00 0.00 0.00 82 1016.7
20260902180554 72 281 5.0 10.0 0.00 0.00 0.00 82 1016.7
20260902180055 72 280 3.0 9.0 0.00 0.00 0.00 82 1016.6
20260902175554 72 260 3.0 9.0 0.00 0.00 0.00 81 1016.6
20260902175056 73 264 6.0 9.0 0.00 0.00 0.00 80 1016.5
20260902174557 73 267 5.0 9.0 0.00 0.00 0.00 80 1016.6
20260902174054 74 272 5.0 9.0 0.00 0.00 0.00 79 1016.6
20260902173554 74 275 4.0 9.0 0.00 0.00 0.00 79 1016.6
20260902173117 74 255 3.0 9.0 0.00 0.00 0.00 80 1016.6
20260902172552 73 279 3.0 9.0 0.00 0.00 0.00 81 1016.6
20260902172052 74 279 5.0 10.0 0.00 0.00 0.00 79 1016.7
20260902171602 74 268 4.0 8.0 0.00 0.00 0.00 79 1016.7
20260902171052 74 265 5.0 8.0 0.00 0.00 0.00 79 1016.6
20260902170551 75 271 2.0 13.0 0.00 0.00 0.00 79 1016.7
20260902170057 74 301 5.0 13.0 0.00 0.00 0.00 79 1016.7
20260902165551 75 267 4.0 9.0 0.00 0.00 0.00 77 1016.7
20260902165051 74 293 3.0 12.0 0.00 0.00 0.00 79 1016.7
20260902164555 74 279 5.0 12.0 0.00 0.00 0.00 78 1016.7
20260902164051 74 273 4.0 10.0 0.00 0.00 0.00 78 1016.6
20260902163551 74 261 5.0 12.0 0.00 0.00 0.00 78 1016.5
20260902163050 74 271 3.0 12.0 0.00 0.00 0.00 78 1016.5
20260902162550 74 257 7.0 12.0 0.00 0.00 0.00 79 1016.6
20260902162051 74 279 7.0 13.0 0.00 0.00 0.00 79 1016.5
20260902161549 74 263 7.0 13.0 0.00 0.00 0.00 79 1016.5
20260902161049 74 271 8.0 14.0 0.00 0.00 0.00 79 1016.5
20260902160548 74 300 6.0 15.0 0.00 0.00 0.00 80 1016.5
20260902155548 75 248 8.0 14.0 0.00 0.00 0.00 78 1016.7
20260902155048 75 285 5.0 10.0 0.00 0.00 0.00 77 1016.7
20260902154548 75 217 5.0 14.0 0.00 0.00 0.00 78 1016.8
20260902154049 75 245 6.0 16.0 0.00 0.00 0.00 78 1016.8
20260902153549 74 275 10.0 16.0 0.00 0.00 0.00 77 1016.7
20260902153047 75 279 9.0 15.0 0.00 0.00 0.00 77 1016.7
20260902152550 75 209 7.0 14.0 0.00 0.00 0.00 78 1016.8
20260902152046 75 246 9.0 15.0 0.00 0.00 0.00 77 1016.7
20260902151546 75 228 6.0 15.0 0.00 0.00 0.00 79 1016.7
20260902151045 75 250 9.0 15.0 0.00 0.00 0.00 79 1016.7
20260902150545 75 200 10.0 15.0 0.00 0.00 0.00 79 1016.7
20260902150046 75 246 8.0 15.0 0.00 0.00 0.00 80 1016.7
20260902145546 75 261 7.0 14.0 0.00 0.00 0.00 80 1016.7
20260902145044 75 262 5.0 11.0 0.00 0.00 0.00 79 1016.9
20260902144548 75 244 4.0 14.0 0.00 0.00 0.00 81 1016.9
20260902144045 75 239 5.0 14.0 0.00 0.00 0.00 80 1017.0
20260902143548 75 271 9.0 13.0 0.00 0.00 0.00 78 1017.1
20260902143044 75 241 5.0 13.0 0.00 0.00 0.00 80 1017.1
20260902142544 75 267 6.0 12.0 0.00 0.00 0.00 80 1017.1
20260902142044 75 229 5.0 10.0 0.00 0.00 0.00 80 1017.1
20260902141644 75 191 5.0 14.0 0.00 0.00 0.00 79 1017.2
20260902141043 75 280 9.0 14.0 0.00 0.00 0.00 81 1017.2
20260902140543 74 237 7.0 11.0 0.00 0.00 0.00 82 1017.2
20260902140046 74 249 6.0 13.0 0.00 0.00 0.00 83 1017.1
20260902135542 74 259 6.0 13.0 0.00 0.00 0.00 83 1017.2
20260902135042 74 246 7.0 16.0 0.00 0.00 0.00 82 1017.3
20260902134544 74 246 7.0 16.0 0.00 0.00 0.00 83 1017.3
20260902134041 73 315 6.0 12.0 0.00 0.00 0.00 82 1017.4
20260902133541 74 261 3.0 11.0 0.00 0.00 0.00 82 1017.3
20260902133051 74 246 8.0 11.0 0.00 0.00 0.00 81 1017.5
20260902132540 75 285 4.0 11.0 0.00 0.00 0.00 81 1017.5
20260902132044 75 306 5.0 11.0 0.00 0.00 0.00 80 1017.5
20260902131549 75 281 6.0 10.0 0.00 0.00 0.00 80 1017.6
20260902131039 75 306 3.0 11.0 0.00 0.00 0.00 81 1017.5
20260902130538 74 323 3.0 13.0 0.00 0.00 0.00 81 1017.6
20260902130038 74 242 8.0 13.0 0.00 0.00 0.00 82 1017.6
20260902125538 74 245 6.0 13.0 0.00 0.00 0.00 82 1017.7
20260902125038 74 271 9.0 13.0 0.00 0.00 0.00 80 1017.7
20260902124535 75 246 4.0 11.0 0.00 0.00 0.00 81 1017.8
20260902124035 75 256 7.0 11.0 0.00 0.00 0.00 80 1017.8
20260902123537 75 240 5.0 11.0 0.00 0.00 0.00 80 1017.8
20260902123048 74 244 6.0 13.0 0.00 0.00 0.00 82 1017.8
20260902122533 74 267 8.0 12.0 0.00 0.00 0.00 82 1017.9
20260902122033 73 256 5.0 13.0 0.00 0.00 0.00 82 1017.8
20260902121530 74 278 7.0 13.0 0.00 0.00 0.00 81 1017.9
20260902121030 74 276 8.0 14.0 0.00 0.00 0.00 80 1017.9
20260902120528 74 284 5.0 12.0 0.00 0.00 0.00 81 1017.8
20260902120034 75 271 8.0 12.0 0.00 0.00 0.00 79 1017.9
20260902115528 74 242 4.0 10.0 0.00 0.00 0.00 79 1017.9
20260902115028 75 270 7.0 13.0 0.00 0.00 0.00 79 1017.9
20260902114536 74 275 6.0 13.0 0.00 0.00 0.00 79 1017.9
20260902114022 74 308 5.0 11.0 0.00 0.00 0.00 78 1017.9
20260902113521 74 269 3.0 10.0 0.00 0.00 0.00 79 1018.0
20260902113021 74 266 6.0 10.0 0.00 0.00 0.00 79 1018.0
20260902112522 74 266 5.0 10.0 0.00 0.00 0.00 79 1018.1
20260902112019 74 241 6.0 10.0 0.00 0.00 0.00 80 1018.2
20260902111518 74 265 4.0 11.0 0.00 0.00 0.00 80 1018.2
20260902111018 74 281 5.0 11.0 0.00 0.00 0.00 81 1018.2
20260902110521 74 269 5.0 12.0 0.00 0.00 0.00 81 1018.1
20260902110017 74 229 7.0 12.0 0.00 0.00 0.00 81 1018.0
20260902105519 73 305 4.0 9.0 0.00 0.00 0.00 81 1017.9
20260902105014 73 271 3.0 8.0 0.00 0.00 0.00 80 1017.9
20260902104519 73 292 3.0 9.0 0.00 0.00 0.00 81 1017.9
20260902104013 73 272 4.0 8.0 0.00 0.00 0.00 81 1017.8
20260902103511 73 255 2.0 7.0 0.00 0.00 0.00 81 1017.7
20260902103010 73 273 3.0 5.0 0.00 0.00 0.00 81 1017.7
20260902102508 73 308 3.0 7.0 0.00 0.00 0.00 81 1017.6
20260902102007 72 273 2.0 7.0 0.00 0.00 0.00 82 1017.7
20260902101507 72 238 1.0 7.0 0.00 0.00 0.00 83 1017.7
20260902101005 72 267 1.0 5.0 0.00 0.00 0.00 83 1017.7
20260902100503 72 271 3.0 6.0 0.00 0.00 0.00 83 1017.7
20260902100003 71 290 1.0 4.0 0.00 0.00 0.00 83 1017.7
20260902095501 71 290 1.0 4.0 0.00 0.00 0.00 83 1017.6
20260902095103 71 312 0.0 7.0 0.00 0.00 0.00 84 1017.6
20260902094600 71 290 3.0 7.0 0.00 0.00 0.00 84 1017.6
20260902094100 71 252 2.0 7.0 0.00 0.00 0.00 84 1017.6
20260902093600 71 281 3.0 7.0 0.00 0.00 0.00 84 1017.6
20260902093058 71 292 2.0 5.0 0.00 0.00 0.00 85 1017.6
20260902092558 70 294 3.0 6.0 0.00 0.00 0.00 85 1017.4
20260902092056 70 234 2.0 3.0 0.00 0.00 0.00 85 1017.4
20260902091610 70 234 1.0 5.0 0.00 0.00 0.00 86 1017.3
20260902091054 70 234 2.0 5.0 0.00 0.00 0.00 86 1017.3
20260902090553 70 234 1.0 5.0 0.00 0.00 0.00 86 1017.3
20260902090051 70 234 2.0 5.0 0.00 0.00 0.00 87 1017.3
20260902085549 69 249 2.0 3.0 0.00 0.00 0.00 86 1017.2
20260902085051 69 15 0.0 2.0 0.00 0.00 0.00 87 1017.2
20260902084550 69 15 0.0 3.0 0.00 0.00 0.00 86 1017.1
20260902084046 69 15 0.0 4.0 0.00 0.00 0.00 86 1017.0
20260902083543 70 15 2.0 4.0 0.00 0.00 0.00 85 1016.9
20260902083043 70 15 2.0 4.0 0.00 0.00 0.00 84 1016.9
20260902082540 70 15 0.0 0.0 0.00 0.00 0.00 85 1016.8
20260902082039 70 15 0.0 0.0 0.00 0.00 0.00 85 1016.9
20260902081543 69 15 0.0 0.0 0.00 0.00 0.00 85 1016.8
20260902081036 69 15 0.0 3.0 0.00 0.00 0.00 85 1016.8
20260902080535 68 15 1.0 3.0 0.00 0.00 0.00 85 1016.7
20260902080034 68 15 0.0 3.0 0.00 0.00 0.00 84 1016.8
20260902075533 68 346 1.0 3.0 0.00 0.00 0.00 84 1016.7
20260902075031 68 63 1.0 3.0 0.00 0.00 0.00 84 1016.6
20260902074529 67 63 2.0 4.0 0.00 0.00 0.00 83 1016.6
20260902074028 66 63 2.0 4.0 0.00 0.00 0.00 81 1016.5
20260902073528 66 63 1.0 5.0 0.00 0.00 0.00 82 1016.4
20260902073033 67 58 4.0 5.0 0.00 0.00 0.00 83 1016.4
20260902072527 66 38 2.0 4.0 0.00 0.00 0.00 82 1016.4
20260902072027 66 118 2.0 4.0 0.00 0.00 0.00 81 1016.4
20260902071524 67 68 1.0 4.0 0.00 0.00 0.00 81 1016.3
20260902071024 67 70 2.0 3.0 0.00 0.00 0.00 80 1016.4
20260902070525 66 70 2.0 4.0 0.00 0.00 0.00 80 1016.2
20260902070032 65 70 2.0 5.0 0.00 0.00 0.00 79 1016.2
20260902065522 65 71 3.0 5.0 0.00 0.00 0.00 80 1016.1
20260902065022 66 85 3.0 6.0 0.00 0.00 0.00 84 1016.0
20260902064535 66 85 0.0 4.0 0.00 0.00 0.00 85 1016.1
20260902064022 66 85 2.0 4.0 0.00 0.00 0.00 85 1016.1
20260902063527 67 17 0.0 3.0 0.00 0.00 0.00 84 1016.0
20260902063022 67 65 0.0 0.0 0.00 0.00 0.00 83 1016.0
20260902062521 67 65 0.0 0.0 0.00 0.00 0.00 82 1015.9
20260902062021 67 65 0.0 0.0 0.00 0.00 0.00 82 1015.8
20260902061521 67 65 0.0 4.0 0.00 0.00 0.00 82 1015.8
20260902061022 67 348 1.0 4.0 0.00 0.00 0.00 81 1015.6
20260902060527 67 109 2.0 4.0 0.00 0.00 0.00 80 1015.7
20260902060022 67 17 1.0 4.0 0.00 0.00 0.00 77 1015.6
20260902055525 69 329 0.0 4.0 0.00 0.00 0.00 78 1015.6
20260902055020 70 44 2.0 3.0 0.00 0.00 0.00 78 1015.5
20260902054519 69 311 0.0 6.0 0.00 0.00 0.00 74 1015.5
20260902054019 69 165 4.0 6.0 0.00 0.00 0.00 72 1015.4
20260902053519 68 129 2.0 11.0 0.00 0.00 0.00 74 1015.4
20260902053019 67 252 6.0 11.0 0.00 0.00 0.00 82 1015.4
20260902052521 64 71 4.0 7.0 0.00 0.00 0.00 90 1015.4
20260902052019 64 74 2.0 7.0 0.00 0.00 0.00 91 1015.5
20260902051517 64 56 3.0 6.0 0.00 0.00 0.00 93 1015.4
20260902051017 64 11 4.0 7.0 0.00 0.00 0.00 93 1015.3
20260902050519 65 105 4.0 7.0 0.00 0.00 0.00 93 1015.3
20260902050016 65 30 2.0 5.0 0.00 0.00 0.00 94 1015.4
20260902045520 65 42 3.0 5.0 0.00 0.00 0.00 93 1015.3
20260902045015 65 75 1.0 6.0 0.00 0.00 0.00 94 1015.5
20260902044515 65 104 3.0 6.0 0.00 0.00 0.00 94 1015.4
20260902044017 65 5 0.0 6.0 0.00 0.00 0.00 93 1015.4
20260902043514 65 36 0.0 6.0 0.00 0.00 0.00 93 1015.3
20260902043014 65 68 1.0 6.0 0.00 0.00 0.00 93 1015.3
20260902042512 66 360 1.0 3.0 0.00 0.00 0.00 94 1015.3
20260902042012 66 47 0.0 2.0 0.00 0.00 0.00 93 1015.4
20260902041530 66 47 0.0 4.0 0.00 0.00 0.00 93 1015.4
20260902041011 66 38 2.0 4.0 0.00 0.00 0.00 93 1015.4
20260902040511 66 18 0.0 4.0 0.00 0.00 0.00 93 1015.5
20260902040011 66 346 0.0 4.0 0.00 0.00 0.00 93 1015.5
20260902035510 66 360 2.0 4.0 0.00 0.00 0.00 93 1015.4
20260902035010 66 355 1.0 4.0 0.00 0.00 0.00 93 1015.5
20260902034511 66 5 1.0 5.0 0.00 0.00 0.00 93 1015.5
20260902034010 66 59 2.0 5.0 0.00 0.00 0.00 93 1015.5
20260902033509 66 51 2.0 5.0 0.00 0.00 0.00 93 1015.4
20260902033009 66 61 2.0 4.0 0.00 0.00 0.00 92 1015.4
20260902032509 66 342 1.0 4.0 0.00 0.00 0.00 92 1015.5
20260902032008 66 32 0.0 4.0 0.00 0.00 0.00 92 1015.5
20260902031508 66 116 2.0 6.0 0.00 0.00 0.00 92 1015.5
20260902031008 66 65 3.0 6.0 0.00 0.00 0.00 91 1015.4
20260902030508 66 66 2.0 4.0 0.00 0.00 0.00 91 1015.5
20260902030006 66 5 2.0 6.0 0.00 0.00 0.00 91 1015.5
20260902025506 66 82 2.0 4.0 0.00 0.00 0.00 90 1015.6
20260902025006 66 40 1.0 4.0 0.00 0.00 0.00 90 1015.6
20260902024505 66 62 2.0 5.0 0.00 0.00 0.00 90 1015.7
20260902024004 66 64 2.0 5.0 0.00 0.00 0.00 89 1015.8
20260902023503 67 47 1.0 5.0 0.00 0.00 0.00 89 1015.9
20260902023003 67 24 2.0 5.0 0.00 0.00 0.00 88 1015.9
20260902022503 67 42 2.0 5.0 0.00 0.00 0.00 87 1015.9
20260902022002 67 50 3.0 5.0 0.00 0.00 0.00 87 1015.8
20260902021505 67 29 2.0 4.0 0.00 0.00 0.00 86 1016.0
20260902021002 67 100 2.0 4.0 0.00 0.00 0.00 84 1016.1
20260902020501 66 49 0.0 5.0 0.00 0.00 0.00 82 1016.0